Eau Claire, WI

7:27 AM CST on December 14, 2019 (GMT -0600)
Chippewa Valley Regional

Weather History for KEAU - July, 2019

Change the Weather History Date:

Thursday, July 18, 2019

  Actual Average Record
Temperature  
Mean Temperature 77 °F 72 °F  
Max Temperature 84 °F 83 °F 102 °F (1964)
Min Temperature 69 °F 61 °F 48 °F (2000)
Degree Days  
Heating Degree Days 0 0  
Month to date heating degree days 0 0  
Since 1 June heating degree days 64 62  
Since 1 July heating degree days 0 0  
Cooling Degree Days 12 7  
Month to date cooling degree days 156 125  
Year to date cooling degree days 227 277  
Since 1 June cooling degree days 217 245  
Growing Degree Days 26 (Base 50)    
Moisture  
Dew Point 69 °F    
Average Humidity 80    
Maximum Humidity 90    
Minimum Humidity 69    
Precipitation  
Precipitation 0.49 in 0.12 in 2.94 in (1971)
Month to date precipitation 3.36 2.23  
Year to date precipitation 22.87 16.00  
Snow  
Snow 0.00 in 0.00 in 0.00 in ()
Month to date snowfall 0.0 0.0  
Since 1 June snowfall 0.0 0.0  
Since 1 July snowfall 0.0 0.0  
Snow Depth 0.00 in    
Sea Level Pressure  
Sea Level Pressure 29.71 in    
Wind  
Wind Speed 8 mph (SSW)    
Max Wind Speed 25 mph    
Max Gust Speed 33 mph    
Visibility 9 miles    
Events Rain , Thunderstorm    
T = Trace of Precipitation, MM = Missing Value Source: NWS Daily Summary

Daily Weather History Graph

Daily Weather History Graph

Search for Another Location

Airport or City:

Astronomy

Jul. 18, 2019 Rise Set
Actual Time 5:36 AM CDT 8:47 PM CDT
Civil Twilight 5:01 AM CDT 9:22 PM CDT
Nautical Twilight 4:15 AM CDT 10:08 PM CDT
Astronomical Twilight 3:19 AM CDT 11:03 PM CDT
Moon 10:09 PM CDT (7/18) 7:07 AM CDT (7/18)
Length of Visible Light 16h 21m
Length of Day
15h 10m
Full, 97% of the Moon is Illuminated
Jul 18
Full
Jul 24
Last Quarter
Jul 31
New
Aug 7
First Quarter
Aug 15
Full

Hourly Weather History & Observations

Time (CDT) Temp. Heat Index Dew Point Humidity Pressure Visibility Wind Dir Wind Speed Gust Speed Precip Events Conditions
12:56 AM 73.0 °F - 68.0 °F 84% 29.75 in 10.0 mi South 4.6 mph - N/A   Clear
1:56 AM 73.0 °F - 66.9 °F 81% 29.73 in 10.0 mi South 6.9 mph - N/A   Clear
2:56 AM 73.0 °F - 66.9 °F 81% 29.73 in 10.0 mi SSW 6.9 mph - N/A   Overcast
3:56 AM 73.9 °F - 66.0 °F 76% 29.70 in 10.0 mi South 9.2 mph - N/A   Mostly Cloudy
4:37 AM 73.0 °F - 66.9 °F 81% 29.72 in 10.0 mi South 12.7 mph - 0.00 in Thunderstorm Overcast
4:53 AM 71.6 °F - 66.2 °F 83% 29.76 in 5.0 mi SSW 15.0 mph 24.2 mph 0.09 in Rain , Thunderstorm Thunderstorms and Rain
4:56 AM 71.1 °F - 68.0 °F 90% 29.75 in 3.0 mi SW 13.8 mph 24.2 mph 0.15 in Rain , Thunderstorm Heavy Thunderstorms and Rain
5:03 AM 71.1 °F - 68.0 °F 90% 29.73 in 2.0 mi South 20.7 mph 26.5 mph 0.16 in Rain , Thunderstorm Heavy Thunderstorms and Rain
5:06 AM 70.0 °F - 68.0 °F 93% 29.73 in 1.5 mi South 16.1 mph 26.5 mph 0.27 in Rain , Thunderstorm Heavy Thunderstorms and Rain
5:14 AM 71.1 °F - 66.9 °F 87% 29.76 in 3.0 mi SSW 10.4 mph - 0.28 in Rain , Thunderstorm Light Thunderstorms and Rain
5:23 AM 70.0 °F - 66.9 °F 90% 29.76 in 10.0 mi SSW 11.5 mph - 0.29 in Rain , Thunderstorm Light Rain
5:32 AM 70.0 °F - 66.9 °F 90% 29.81 in 10.0 mi WSW 10.4 mph - 0.30 in Rain , Thunderstorm Light Thunderstorms and Rain
5:47 AM 70.0 °F - 66.9 °F 90% 29.72 in 8.0 mi SSE 18.4 mph 31.1 mph 0.33 in Rain , Thunderstorm Rain
5:54 AM 69.8 °F - 66.2 °F 88% 29.70 in 8.0 mi ENE 8.1 mph 27.6 mph 0.33 in Rain , Thunderstorm Light Thunderstorms and Rain
6:20 AM 69.1 °F - 66.9 °F 93% 29.70 in 10.0 mi WSW 12.7 mph - 0.00 in   Mostly Cloudy
6:56 AM 69.1 °F - 66.9 °F 93% 29.72 in 10.0 mi West 6.9 mph - 0.00 in   Scattered Clouds
7:04 AM 70.0 °F - 66.9 °F 90% 29.74 in 10.0 mi WNW 6.9 mph - N/A   Mostly Cloudy
7:17 AM 70.0 °F - 68.0 °F 93% 29.74 in 10.0 mi West 3.5 mph - N/A   Overcast
7:39 AM 71.1 °F - 68.0 °F 90% 29.75 in 10.0 mi SW 4.6 mph - N/A   Overcast
7:56 AM 71.1 °F - 66.9 °F 87% 29.73 in 10.0 mi SSW 5.8 mph - N/A   Overcast
8:56 AM 72.0 °F - 68.0 °F 87% 29.73 in 10.0 mi SSW 5.8 mph - N/A   Overcast
9:56 AM 73.9 °F - 68.0 °F 82% 29.73 in 10.0 mi South 6.9 mph - N/A   Overcast
10:38 AM 75.0 °F - 68.0 °F 79% 29.74 in 10.0 mi South 12.7 mph - N/A   Overcast
10:54 AM 75.2 °F - 68.0 °F 78% 29.74 in 10.0 mi South 12.7 mph - N/A   Overcast
10:56 AM 75.9 °F - 68.0 °F 76% 29.72 in 10.0 mi South 10.4 mph - N/A   Overcast
11:56 AM 79.0 °F - 68.0 °F 69% 29.70 in 10.0 mi South 11.5 mph - N/A   Mostly Cloudy
12:31 PM 78.1 °F - 66.9 °F 68% 29.72 in 10.0 mi SW 9.2 mph - N/A   Overcast
12:56 PM 78.1 °F - 68.0 °F 71% 29.70 in 10.0 mi SW 11.5 mph - N/A   Overcast
1:56 PM 79.0 °F - 69.1 °F 72% 29.68 in 10.0 mi SSW 11.5 mph - N/A   Mostly Cloudy
2:56 PM 78.1 °F - 70.0 °F 76% 29.68 in 10.0 mi SSW 10.4 mph - N/A   Scattered Clouds
3:12 PM 78.1 °F - 71.1 °F 79% 29.69 in 10.0 mi SW 6.9 mph - N/A   Mostly Cloudy
3:56 PM 80.1 °F 83.6 °F 71.1 °F 74% 29.68 in 10.0 mi SSW 5.8 mph - N/A   Mostly Cloudy
4:33 PM 82.9 °F 88.8 °F 73.0 °F 72% 29.69 in 10.0 mi SSW 10.4 mph - N/A   Mostly Cloudy
4:56 PM 82.9 °F 88.8 °F 73.0 °F 72% 29.68 in 10.0 mi SSW 11.5 mph - N/A   Mostly Cloudy
5:42 PM 82.9 °F 88.8 °F 73.0 °F 72% 29.69 in 10.0 mi SW 6.9 mph - N/A   Scattered Clouds
5:56 PM 82.9 °F 88.0 °F 72.0 °F 69% 29.67 in 10.0 mi SSW 8.1 mph - N/A   Partly Cloudy
6:56 PM 82.0 °F 87.4 °F 73.0 °F 74% 29.65 in 10.0 mi SSW 5.8 mph - N/A   Scattered Clouds
7:56 PM 81.0 °F 86.2 °F 73.9 °F 79% 29.66 in 10.0 mi SSW 5.8 mph - N/A   Mostly Cloudy
8:56 PM 80.1 °F 84.5 °F 73.9 °F 81% 29.68 in 10.0 mi South 4.6 mph - N/A   Overcast
9:56 PM 78.1 °F - 73.9 °F 87% 29.67 in 10.0 mi SSE 6.9 mph - N/A   Partly Cloudy
10:56 PM 79.0 °F - 73.0 °F 82% 29.65 in 10.0 mi SSE 5.8 mph - N/A   Clear
11:56 PM 77.0 °F - 70.0 °F 79% 29.66 in 10.0 mi South 6.9 mph - N/A   Scattered Clouds